This demonstration page uses our WeatherBlox Daily Observations layout. Learn more.

41.55636, -103.73856

Hourly Observations for August 6, 2019

Temp ( °F °C ) Dew Point ( °F °C ) Humidity (%) Winds ( mph kmh ) Pressure ( in mb ) Visibility ( mi km ) Precip ( " mm )
12:00 am 00:00 Cloudy with Nearby Thunderstorms 64 18 55 13 73 73 E 21 33 30 1016 10 16.09344 0 0
12:09 am 00:09 Mostly Cloudy with Nearby Thunderstorms 66 18.9 57 13.9 73 73 SE 16 26 29.91 1013 10 16.09344 0.001 0.001
12:17 am 00:17 Partly Cloudy with Light Rain 67 19.4 57 13.9 71 71 SSE 18 30 29.94 1014 10 16.09344 0.001 0.001
12:53 am 00:53 Clear 65 18.3 54 12.2 68 68 S 9 15 29.94 1014 10 16.09344 0.001 0.001
1:53 am 01:53 Clear 60 15.6 57 13.9 90 90 N 7 11 29.94 1014 10 16.09344 0 0
2:53 am 02:53 Clear 60 15.6 57 13.9 90 90 N 9 15 29.94 1014 10 16.09344 0 0
3:53 am 03:53 Clear 59 15 56 13.3 90 90 NW 7 11 29.91 1013 10 16.09344 0 0
4:53 am 04:53 Clear 59 15 57 13.9 93 93 W 5 7 29.91 1013 10 16.09344 0 0
5:53 am 05:53 Clear 58 14.4 57 13.9 97 97 W 6 9 29.94 1014 10 16.09344 0 0
6:53 am 06:53 Sunny 63 17.2 59 15 87 87 Calm 29.94 1014 10 16.09344 0 0
7:53 am 07:53 Sunny 68 20 59 15 73 73 Calm 29.94 1014 10 16.09344 0 0
8:53 am 08:53 Sunny 72 22.2 61 16.1 68 68 E 5 7 29.94 1014 10 16.09344 0 0
9:53 am 09:53 Sunny 75 23.9 62 16.7 64 64 E 10 17 29.91 1013 10 16.09344 0 0
10:53 am 10:53 Sunny 81 27.2 63 17.2 54 54 ESE 8 13 29.91 1013 10 16.09344 0 0
11:53 am 11:53 Sunny 84 28.9 64 17.8 51 51 E 9 15 29.91 1013 10 16.09344 0 0
12:53 pm 12:53 Sunny 87 30.6 64 17.8 46 46 E 6 9 29.88 1012 10 16.09344 0 0
1:53 pm 13:53 Sunny 90 32.2 66 18.9 45 45 E 8 13 29.85 1011 10 16.09344 0 0
2:53 pm 14:53 Sunny 92 33.3 63 17.2 38 38 E 8 13 29.83 1010 10 16.09344 0 0
3:53 pm 15:53 Sunny 94 34.4 64 17.8 37 37 E 7 11 29.83 1010 10 16.09344 0 0
4:53 pm 16:53 Sunny 94 34.4 62 16.7 35 35 E 9 15 29.77 1008 10 16.09344 0 0
5:53 pm 17:53 Sunny 92 33.3 61 16.1 36 36 E 7 11 29.8 1009 10 16.09344 0 0
6:53 pm 18:53 Sunny 83 28.3 55 12.8 38 38 NNE 14 22 29.83 1010 10 16.09344 0 0
7:53 pm 19:53 Sunny 79 26.1 55 12.8 44 44 ENE 14 22 29.8 1009 10 16.09344 0 0
8:53 pm 20:53 Clear 75 23.9 55 12.8 50 50 SSE 3 6 29.83 1010 10 16.09344 0 0
9:53 pm 21:53 Clear 69 20.6 59 15 70 70 N 5 7 29.85 1011 10 16.09344 0 0
10:53 pm 22:53 Clear 67 19.4 59 15 76 76 NW 6 9 29.85 1011 10 16.09344 0 0
11:53 pm 23:53 Clear 67 19.4 58 14.4 73 73 Calm 29.83 1010 10 16.09344 0 0

Powered by AerisWeather